Sisimiut

KL  EN  DA
ASIAQ
Weather Now GREENLAND SURVEY
Updated [WGT/WGST] Temperature [°C] Wind [m/s] Air pressure [hPa] Relative humidity [%] Precipitation [mm]
Present Wind chill Speed Max
21.01 20:00-10,8-20,17,5 ⇒9,4998780,0
21.01 19:00-10,7-20,28,0 ⇗9,8998780,1
21.01 18:00-10,7-18,75,6 ⇗7,9998830,1
21.01 17:00-10,2-17,75,1 ⇗7,0998680,0
21.01 16:00-10,3-18,35,7 ⇗8,1998730,0
21.01 15:00-10,5-18,15,1 ⇗6,7998720,0
21.01 14:00-10,7-19,87,2 ⇗9,8998730,0
21.01 13:00-10,1-19,27,6 ⇗10,6998670,0
21.01 12:00-10,3-18,66,2 ⇗9,6998690,0
21.01 11:00-10,4-19,77,8 ⇗10,1998680,0
21.01 10:00-10,7-20,78,9 ⇗11,8998620,0
21.01 09:00-10,6-20,99,5 ⇗14,7998660,0
21.01 08:00-10,4-20,69,5 ⇗11,9998640,0
21.01 07:00-10,3-20,08,7 ⇗11,5997690,0
21.01 06:00-10,1-20,19,2 ⇗13,2996700,1
21.01 05:00-9,8-19,07,8 ⇑11,4996670,0
21.01 04:00-10,0-19,89,1 ⇗11,6996800,1
21.01 03:00-9,8-19,79,1 ⇑12,5994770,1
21.01 02:00-10,1-19,68,4 ⇑11,3994820,0
21.01 01:00-9,9-19,58,5 ⇑13,6993680,0
21.01 00:00-9,5-19,49,5 ⇗14,4993690,1
20.01 23:00-9,3-18,68,3 ⇗11,8992660,1
20.01 22:00-9,5-18,57,6 ⇑9,8992750,0
20.01 21:00-9,5-18,06,7 ⇑9,7991750,0
20.01 20:00-9,3-17,66,6 ⇑8,9991730,0
Position: (66.95138888888,-53.729444444)

[Back]